Wetterdaten: Woche 14.03.16 - 20.03.16 (KW11)
Datum Zeit Temperatur Luftfeuchte Luftdruck Niederschlag Windrichtung Sonnenschein Solar Wind
14.03.2016 00:00 3,5 C 84 % 1025,5 hPa 0,0 l/m O 0,00 h 0 W/m 23,5 km/h (4 Bft)
14.03.2016 01:00 3,4 C 84 % 1025,5 hPa 0,0 l/m O 0,00 h 0 W/m 23,6 km/h (4 Bft)
14.03.2016 02:00 3,3 C 84 % 1025,2 hPa 0,0 l/m O 0,00 h 0 W/m 21,0 km/h (4 Bft)
14.03.2016 03:00 3,0 C 84 % 1024,8 hPa 0,0 l/m O-NO 0,00 h 0 W/m 24,0 km/h (4 Bft)
14.03.2016 04:00 2,7 C 83 % 1024,8 hPa 0,0 l/m O-NO 0,00 h 0 W/m 25,1 km/h (4 Bft)
14.03.2016 05:00 2,4 C 84 % 1024,9 hPa 0,0 l/m O-NO 0,00 h 0 W/m 24,3 km/h (4 Bft)
14.03.2016 06:00 2,1 C 83 % 1025,4 hPa 0,0 l/m O-NO 0,00 h 5 W/m 26,4 km/h (4 Bft)
14.03.2016 07:00 1,8 C 83 % 1025,9 hPa 0,0 l/m O-NO 0,00 h 17 W/m 27,8 km/h (4 Bft)
14.03.2016 08:00 1,6 C 82 % 1026,1 hPa 0,0 l/m O-NO 0,00 h 42 W/m 26,0 km/h (4 Bft)
14.03.2016 09:00 1,8 C 82 % 1026,3 hPa 0,0 l/m O 0,00 h 84 W/m 25,6 km/h (4 Bft)
14.03.2016 10:00 2,1 C 81 % 1026,4 hPa 0,0 l/m O 0,00 h 131 W/m 27,6 km/h (4 Bft)
14.03.2016 11:00 3,2 C 77 % 1026,0 hPa 0,0 l/m O 0,33 h 423 W/m 28,4 km/h (4 Bft)
14.03.2016 12:00 3,9 C 74 % 1025,7 hPa 0,0 l/m O-NO 0,17 h 275 W/m 29,2 km/h (5 Bft)
14.03.2016 13:00 4,8 C 70 % 1025,5 hPa 0,0 l/m O-NO 0,50 h 432 W/m 26,3 km/h (4 Bft)
14.03.2016 14:00 5,5 C 67 % 1024,9 hPa 0,0 l/m O 0,42 h 329 W/m 30,4 km/h (5 Bft)
14.03.2016 15:00 6,1 C 65 % 1024,5 hPa 0,0 l/m O-NO 0,58 h 317 W/m 24,9 km/h (4 Bft)
14.03.2016 16:00 6,5 C 62 % 1024,2 hPa 0,0 l/m O 0,58 h 233 W/m 24,8 km/h (4 Bft)
14.03.2016 17:00 5,9 C 64 % 1024,4 hPa 0,0 l/m O 0,08 h 54 W/m 20,0 km/h (4 Bft)
14.03.2016 18:00 5,2 C 66 % 1024,6 hPa 0,0 l/m O 0,00 h 11 W/m 13,4 km/h (3 Bft)
14.03.2016 19:00 4,2 C 68 % 1024,6 hPa 0,0 l/m O-NO 0,00 h 0 W/m 11,3 km/h (2 Bft)
14.03.2016 20:00 3,4 C 72 % 1024,5 hPa 0,0 l/m NO 0,00 h 0 W/m 11,4 km/h (2 Bft)
14.03.2016 21:00 2,5 C 75 % 1024,0 hPa 0,0 l/m NO 0,00 h 0 W/m 3,1 km/h (1 Bft)
14.03.2016 22:00 1,5 C 79 % 1023,7 hPa 0,0 l/m N 0,00 h 0 W/m 2,1 km/h (1 Bft)
14.03.2016 23:00 0,4 C 81 % 1023,7 hPa 0,0 l/m NO 0,00 h 0 W/m 2,0 km/h (1 Bft)
15.03.2016 00:00 -0,2 C 85 % 1023,6 hPa 0,0 l/m N 0,00 h 0 W/m 1,9 km/h (1 Bft)
15.03.2016 01:00 -0,3 C 85 % 1023,7 hPa 0,0 l/m NO 0,00 h 0 W/m 2,9 km/h (1 Bft)
15.03.2016 02:00 -0,8 C 85 % 1023,8 hPa 0,0 l/m NO 0,00 h 0 W/m 3,7 km/h (1 Bft)
15.03.2016 03:00 -1,3 C 87 % 1023,4 hPa 0,0 l/m N-NO 0,00 h 0 W/m 6,6 km/h (2 Bft)
15.03.2016 04:00 -1,6 C 88 % 1023,4 hPa 0,0 l/m N-NO 0,00 h 0 W/m 2,5 km/h (1 Bft)
15.03.2016 05:00 -1,8 C 89 % 1023,6 hPa 0,0 l/m N 0,00 h 0 W/m 0,3 km/h (0 Bft)
15.03.2016 06:00 -2,3 C 90 % 1023,6 hPa 0,0 l/m N 0,00 h 8 W/m 0,0 km/h (0 Bft)
15.03.2016 07:00 -1,9 C 92 % 1023,5 hPa 0,0 l/m N-NO 0,00 h 35 W/m 2,3 km/h (1 Bft)
15.03.2016 08:00 -0,7 C 91 % 1023,0 hPa 0,0 l/m N 0,00 h 96 W/m 0,0 km/h (0 Bft)
15.03.2016 09:00 0,6 C 87 % 1022,8 hPa 0,0 l/m N-NO 0,00 h 140 W/m 1,2 km/h (1 Bft)
15.03.2016 10:00 1,8 C 83 % 1022,6 hPa 0,0 l/m NO 0,25 h 260 W/m 1,6 km/h (1 Bft)
15.03.2016 11:00 3,6 C 77 % 1021,9 hPa 0,0 l/m O-NO 0,00 h 123 W/m 3,9 km/h (1 Bft)
15.03.2016 12:00 2,8 C 84 % 1021,6 hPa 0,2 l/m O-NO 0,00 h 58 W/m 6,7 km/h (2 Bft)
15.03.2016 13:00 1,5 C 91 % 1021,3 hPa 0,2 l/m N 0,00 h 52 W/m 0,0 km/h (0 Bft)
15.03.2016 14:00 1,1 C 93 % 1020,7 hPa 0,0 l/m N 0,00 h 48 W/m 0,0 km/h (0 Bft)
15.03.2016 15:00 0,9 C 94 % 1020,3 hPa 0,0 l/m O-NO 0,00 h 56 W/m 2,0 km/h (1 Bft)
15.03.2016 16:00 0,8 C 95 % 1020,0 hPa 4,0 l/m N-NO 0,00 h 40 W/m 8,2 km/h (2 Bft)
15.03.2016 17:00 0,7 C 95 % 1019,9 hPa 1,0 l/m NO 0,00 h 17 W/m 11,1 km/h (2 Bft)
15.03.2016 18:00 0,5 C 95 % 1020,3 hPa 0,0 l/m O-NO 0,00 h 6 W/m 17,3 km/h (3 Bft)
15.03.2016 19:00 0,4 C 96 % 1020,5 hPa 0,0 l/m O-NO 0,00 h 0 W/m 18,2 km/h (3 Bft)
15.03.2016 20:00 0,5 C 96 % 1020,5 hPa 0,0 l/m O 0,00 h 0 W/m 14,1 km/h (3 Bft)
15.03.2016 21:00 0,6 C 96 % 1020,4 hPa 0,0 l/m O-NO 0,00 h 0 W/m 13,6 km/h (3 Bft)
15.03.2016 22:00 0,5 C 95 % 1020,1 hPa 0,0 l/m O-NO 0,00 h 0 W/m 16,4 km/h (3 Bft)
15.03.2016 23:00 0,3 C 94 % 1020,1 hPa 0,0 l/m O-NO 0,00 h 0 W/m 19,4 km/h (3 Bft)
16.03.2016 00:00 -0,1 C 93 % 1019,9 hPa 0,0 l/m O-NO 0,00 h 0 W/m 15,8 km/h (3 Bft)
16.03.2016 01:00 0,1 C 94 % 1019,7 hPa 0,0 l/m NO 0,00 h 0 W/m 22,2 km/h (4 Bft)
16.03.2016 02:00 0,3 C 93 % 1019,5 hPa 0,0 l/m NO 0,00 h 0 W/m 23,3 km/h (4 Bft)
16.03.2016 03:00 0,3 C 93 % 1019,2 hPa 0,0 l/m O-NO 0,00 h 0 W/m 20,6 km/h (4 Bft)
16.03.2016 04:00 0,2 C 92 % 1019,0 hPa 0,0 l/m O-NO 0,00 h 0 W/m 21,2 km/h (4 Bft)
16.03.2016 05:00 0,2 C 91 % 1019,1 hPa 0,0 l/m O-NO 0,00 h 0 W/m 22,8 km/h (4 Bft)
16.03.2016 06:00 0,1 C 91 % 1018,9 hPa 0,0 l/m O 0,00 h 13 W/m 26,0 km/h (4 Bft)
16.03.2016 07:00 -0,2 C 89 % 1018,8 hPa 0,0 l/m O 0,00 h 22 W/m 29,9 km/h (5 Bft)
16.03.2016 08:00 -0,6 C 87 % 1019,2 hPa 0,0 l/m O-NO 0,00 h 54 W/m 31,3 km/h (5 Bft)
16.03.2016 09:00 -0,6 C 87 % 1019,2 hPa 0,0 l/m O-SO 0,00 h 71 W/m 32,2 km/h (5 Bft)
16.03.2016 10:00 -0,2 C 87 % 1019,5 hPa 0,0 l/m O 0,00 h 106 W/m 25,5 km/h (4 Bft)
16.03.2016 11:00 0,9 C 85 % 1019,7 hPa 0,0 l/m O 0,17 h 350 W/m 25,1 km/h (4 Bft)
16.03.2016 12:00 2,7 C 80 % 1019,8 hPa 0,0 l/m O-SO 0,83 h 670 W/m 29,6 km/h (5 Bft)
16.03.2016 13:00 4,6 C 75 % 1019,9 hPa 0,0 l/m O 1,00 h 629 W/m 28,3 km/h (4 Bft)
16.03.2016 14:00 5,5 C 71 % 1020,0 hPa 0,0 l/m O-NO 1,00 h 568 W/m 33,1 km/h (5 Bft)
16.03.2016 15:00 6,1 C 70 % 1020,1 hPa 0,0 l/m O 0,83 h 417 W/m 27,9 km/h (4 Bft)
16.03.2016 16:00 6,3 C 70 % 1020,6 hPa 0,0 l/m O-NO 1,00 h 299 W/m 27,1 km/h (4 Bft)
16.03.2016 17:00 5,8 C 71 % 1021,0 hPa 0,0 l/m O-NO 0,67 h 108 W/m 23,6 km/h (4 Bft)
16.03.2016 18:00 4,5 C 75 % 1021,7 hPa 0,0 l/m O-NO 0,00 h 10 W/m 20,5 km/h (4 Bft)
16.03.2016 19:00 3,5 C 79 % 1022,3 hPa 0,0 l/m NO 0,00 h 0 W/m 16,1 km/h (3 Bft)
16.03.2016 20:00 2,8 C 81 % 1022,7 hPa 0,0 l/m O-NO 0,00 h 0 W/m 13,3 km/h (3 Bft)
16.03.2016 21:00 2,3 C 83 % 1022,8 hPa 0,0 l/m NO 0,00 h 0 W/m 15,7 km/h (3 Bft)
16.03.2016 22:00 1,7 C 85 % 1023,2 hPa 0,0 l/m NO 0,00 h 0 W/m 12,8 km/h (3 Bft)
16.03.2016 23:00 1,1 C 88 % 1023,4 hPa 0,0 l/m NO 0,00 h 0 W/m 8,0 km/h (2 Bft)
17.03.2016 00:00 0,4 C 90 % 1023,5 hPa 0,0 l/m N 0,00 h 0 W/m 3,5 km/h (1 Bft)
17.03.2016 01:00 -0,6 C 92 % 1023,6 hPa 0,0 l/m NO 0,00 h 0 W/m 6,4 km/h (2 Bft)
17.03.2016 02:00 -1,3 C 93 % 1023,6 hPa 0,0 l/m N-NO 0,00 h 0 W/m 8,2 km/h (2 Bft)
17.03.2016 03:00 -1,0 C 94 % 1023,6 hPa 0,0 l/m N-NO 0,00 h 0 W/m 9,8 km/h (2 Bft)
17.03.2016 04:00 -0,7 C 94 % 1023,7 hPa 0,0 l/m NO 0,00 h 0 W/m 10,1 km/h (2 Bft)
17.03.2016 05:00 -0,9 C 95 % 1023,8 hPa 0,0 l/m NO 0,00 h 0 W/m 8,6 km/h (2 Bft)
17.03.2016 06:00 -1,1 C 95 % 1024,1 hPa 0,0 l/m NO 0,00 h 6 W/m 8,6 km/h (2 Bft)
17.03.2016 07:00 -1,2 C 96 % 1024,5 hPa 0,0 l/m O-NO 0,00 h 18 W/m 7,2 km/h (2 Bft)
17.03.2016 08:00 -1,1 C 96 % 1025,0 hPa 0,0 l/m NO 0,00 h 45 W/m 7,1 km/h (2 Bft)
17.03.2016 09:00 -0,8 C 96 % 1025,2 hPa 0,0 l/m NO 0,00 h 91 W/m 7,2 km/h (2 Bft)
17.03.2016 10:00 0,2 C 95 % 1025,3 hPa 0,0 l/m NO 0,00 h 168 W/m 7,4 km/h (2 Bft)
17.03.2016 11:00 1,8 C 90 % 1025,2 hPa 0,0 l/m O-NO 0,58 h 464 W/m 6,4 km/h (2 Bft)
17.03.2016 12:00 4,0 C 83 % 1024,5 hPa 0,0 l/m NO 1,00 h 675 W/m 5,9 km/h (2 Bft)
17.03.2016 13:00 6,9 C 74 % 1023,7 hPa 0,0 l/m N-NO 1,00 h 665 W/m 6,0 km/h (2 Bft)
17.03.2016 14:00 9,3 C 66 % 1022,7 hPa 0,0 l/m O 1,00 h 596 W/m 8,4 km/h (2 Bft)
17.03.2016 15:00 10,6 C 58 % 1022,2 hPa 0,0 l/m O-NO 1,00 h 482 W/m 11,7 km/h (2 Bft)
17.03.2016 16:00 10,6 C 54 % 1021,8 hPa 0,0 l/m NO 1,00 h 333 W/m 12,0 km/h (2 Bft)
17.03.2016 17:00 10,1 C 57 % 1021,7 hPa 0,0 l/m O-NO 0,75 h 123 W/m 8,7 km/h (2 Bft)
17.03.2016 18:00 8,3 C 62 % 1021,9 hPa 0,0 l/m O-NO 0,08 h 11 W/m 3,2 km/h (1 Bft)
17.03.2016 19:00 5,4 C 74 % 1022,2 hPa 0,0 l/m N 0,00 h 0 W/m 0,1 km/h (0 Bft)
17.03.2016 20:00 4,0 C 80 % 1022,1 hPa 0,0 l/m O-NO 0,00 h 0 W/m 1,2 km/h (1 Bft)
17.03.2016 21:00 3,0 C 85 % 1021,9 hPa 0,0 l/m O-NO 0,00 h 0 W/m 3,1 km/h (1 Bft)
17.03.2016 22:00 3,0 C 85 % 1021,9 hPa 0,0 l/m O-NO 0,00 h 0 W/m 5,2 km/h (1 Bft)
17.03.2016 23:00 1,9 C 88 % 1021,7 hPa 0,0 l/m O-NO 0,00 h 0 W/m 1,6 km/h (1 Bft)
18.03.2016 00:00 0,8 C 91 % 1021,5 hPa 0,0 l/m N 0,00 h 0 W/m 0,0 km/h (0 Bft)
18.03.2016 01:00 0,7 C 92 % 1021,4 hPa 0,0 l/m O-NO 0,00 h 0 W/m 2,1 km/h (1 Bft)
18.03.2016 02:00 0,4 C 92 % 1021,1 hPa 0,0 l/m O-NO 0,00 h 0 W/m 0,5 km/h (0 Bft)
18.03.2016 03:00 -0,5 C 93 % 1020,7 hPa 0,0 l/m N 0,00 h 0 W/m 0,0 km/h (0 Bft)
18.03.2016 04:00 -1,1 C 94 % 1020,4 hPa 0,0 l/m N 0,00 h 0 W/m 0,0 km/h (0 Bft)
18.03.2016 05:00 -1,5 C 94 % 1020,4 hPa 0,0 l/m N 0,00 h 0 W/m 0,0 km/h (0 Bft)
18.03.2016 06:00 -2,2 C 95 % 1020,3 hPa 0,0 l/m N 0,00 h 11 W/m 0,4 km/h (0 Bft)
18.03.2016 07:00 -1,5 C 96 % 1020,7 hPa 0,0 l/m N 0,08 h 71 W/m 0,0 km/h (0 Bft)
18.03.2016 08:00 0,4 C 94 % 1020,9 hPa 0,0 l/m N 1,00 h 237 W/m 0,1 km/h (0 Bft)
18.03.2016 09:00 3,3 C 89 % 1020,7 hPa 0,0 l/m S-SW 1,00 h 408 W/m 4,0 km/h (1 Bft)
18.03.2016 10:00 6,8 C 76 % 1020,2 hPa 0,0 l/m S 1,00 h 552 W/m 6,8 km/h (2 Bft)
18.03.2016 11:00 8,9 C 65 % 1019,7 hPa 0,0 l/m S 1,00 h 647 W/m 5,2 km/h (1 Bft)
18.03.2016 12:00 10,5 C 53 % 1019,0 hPa 0,0 l/m O 1,00 h 690 W/m 5,2 km/h (1 Bft)
18.03.2016 13:00 11,9 C 48 % 1018,1 hPa 0,0 l/m NO 1,00 h 668 W/m 7,1 km/h (2 Bft)
18.03.2016 14:00 13,0 C 41 % 1017,3 hPa 0,0 l/m NO 1,00 h 600 W/m 5,2 km/h (1 Bft)
18.03.2016 15:00 13,5 C 39 % 1016,7 hPa 0,0 l/m N-NO 1,00 h 475 W/m 8,4 km/h (2 Bft)
18.03.2016 16:00 13,5 C 42 % 1016,4 hPa 0,0 l/m O 1,00 h 316 W/m 7,5 km/h (2 Bft)
18.03.2016 17:00 12,5 C 47 % 1016,5 hPa 0,0 l/m O-SO 0,75 h 118 W/m 4,5 km/h (1 Bft)
18.03.2016 18:00 9,3 C 60 % 1016,8 hPa 0,0 l/m N 0,08 h 13 W/m 0,0 km/h (0 Bft)
18.03.2016 19:00 7,1 C 66 % 1017,3 hPa 0,0 l/m N 0,00 h 0 W/m 0,7 km/h (0 Bft)
18.03.2016 20:00 5,8 C 72 % 1017,7 hPa 0,0 l/m N 0,00 h 0 W/m 0,0 km/h (0 Bft)
18.03.2016 21:00 4,4 C 76 % 1018,0 hPa 0,0 l/m N 0,00 h 0 W/m 0,0 km/h (0 Bft)
18.03.2016 22:00 3,0 C 82 % 1018,1 hPa 0,0 l/m N 0,00 h 0 W/m 0,0 km/h (0 Bft)
18.03.2016 23:00 1,9 C 87 % 1018,2 hPa 0,0 l/m N 0,00 h 0 W/m 0,0 km/h (0 Bft)
19.03.2016 00:00 1,1 C 88 % 1018,3 hPa 0,0 l/m N 0,00 h 0 W/m 0,0 km/h (0 Bft)
19.03.2016 01:00 0,5 C 90 % 1018,2 hPa 0,0 l/m N 0,00 h 0 W/m 0,0 km/h (0 Bft)
19.03.2016 02:00 -0,1 C 90 % 1017,9 hPa 0,0 l/m N 0,00 h 0 W/m 0,0 km/h (0 Bft)
19.03.2016 03:00 -0,5 C 92 % 1017,5 hPa 0,0 l/m N 0,00 h 0 W/m 0,0 km/h (0 Bft)
19.03.2016 04:00 -1,0 C 93 % 1017,4 hPa 0,0 l/m N 0,00 h 0 W/m 0,0 km/h (0 Bft)
19.03.2016 05:00 -1,5 C 93 % 1017,1 hPa 0,0 l/m N 0,00 h 0 W/m 0,0 km/h (0 Bft)
19.03.2016 06:00 -1,8 C 94 % 1017,1 hPa 0,0 l/m O-SO 0,00 h 13 W/m 0,9 km/h (0 Bft)
19.03.2016 07:00 -0,9 C 94 % 1017,5 hPa 0,0 l/m N 0,08 h 77 W/m 0,0 km/h (0 Bft)
19.03.2016 08:00 1,0 C 91 % 1017,7 hPa 0,0 l/m N 1,00 h 248 W/m 0,1 km/h (0 Bft)
19.03.2016 09:00 4,7 C 80 % 1017,9 hPa 0,0 l/m O-SO 1,00 h 419 W/m 3,6 km/h (1 Bft)
19.03.2016 10:00 8,1 C 67 % 1017,7 hPa 0,0 l/m O-SO 1,00 h 556 W/m 4,5 km/h (1 Bft)
19.03.2016 11:00 10,6 C 53 % 1017,4 hPa 0,0 l/m O 1,00 h 647 W/m 8,3 km/h (2 Bft)
19.03.2016 12:00 12,1 C 46 % 1016,8 hPa 0,0 l/m N 1,00 h 684 W/m 8,0 km/h (2 Bft)
19.03.2016 13:00 13,1 C 43 % 1016,3 hPa 0,0 l/m NO 1,00 h 653 W/m 8,3 km/h (2 Bft)
19.03.2016 14:00 13,9 C 42 % 1015,9 hPa 0,0 l/m N-NO 1,00 h 581 W/m 8,8 km/h (2 Bft)
19.03.2016 15:00 14,3 C 43 % 1015,6 hPa 0,0 l/m N-NO 0,83 h 404 W/m 9,9 km/h (2 Bft)
19.03.2016 16:00 12,9 C 53 % 1015,6 hPa 0,0 l/m O-NO 1,00 h 257 W/m 15,8 km/h (3 Bft)
19.03.2016 17:00 11,1 C 60 % 1015,9 hPa 0,0 l/m NO 0,58 h 96 W/m 14,2 km/h (3 Bft)
19.03.2016 18:00 8,6 C 67 % 1016,6 hPa 0,0 l/m NO 0,00 h 15 W/m 17,2 km/h (3 Bft)
19.03.2016 19:00 5,3 C 77 % 1017,5 hPa 0,0 l/m NO 0,00 h 0 W/m 16,6 km/h (3 Bft)
19.03.2016 20:00 3,0 C 85 % 1018,3 hPa 0,0 l/m NO 0,00 h 0 W/m 12,6 km/h (3 Bft)
19.03.2016 21:00 2,2 C 88 % 1018,7 hPa 0,0 l/m NO 0,00 h 0 W/m 12,0 km/h (2 Bft)
19.03.2016 22:00 2,2 C 89 % 1018,7 hPa 0,0 l/m NO 0,00 h 0 W/m 14,0 km/h (3 Bft)
19.03.2016 23:00 2,2 C 89 % 1018,6 hPa 0,0 l/m O-NO 0,00 h 0 W/m 8,4 km/h (2 Bft)
20.03.2016 00:00 2,3 C 89 % 1018,4 hPa 0,0 l/m NO 0,00 h 0 W/m 6,6 km/h (2 Bft)
20.03.2016 01:00 2,2 C 89 % 1018,2 hPa 0,0 l/m O-NO 0,00 h 0 W/m 7,2 km/h (2 Bft)
20.03.2016 02:00 2,1 C 90 % 1017,8 hPa 0,0 l/m O 0,00 h 0 W/m 8,5 km/h (2 Bft)
20.03.2016 03:00 1,9 C 91 % 1017,5 hPa 0,0 l/m N 0,00 h 0 W/m 2,0 km/h (1 Bft)
20.03.2016 04:00 1,8 C 92 % 1017,2 hPa 0,0 l/m N 0,00 h 0 W/m 0,7 km/h (0 Bft)
20.03.2016 05:00 1,6 C 93 % 1017,0 hPa 0,0 l/m O 0,00 h 0 W/m 0,5 km/h (0 Bft)
20.03.2016 06:00 1,4 C 93 % 1017,3 hPa 0,0 l/m N 0,00 h 6 W/m 0,4 km/h (0 Bft)
20.03.2016 07:00 1,4 C 94 % 1017,5 hPa 0,0 l/m O 0,00 h 15 W/m 3,0 km/h (1 Bft)
20.03.2016 08:00 1,4 C 94 % 1017,5 hPa 0,0 l/m N 0,00 h 38 W/m 0,7 km/h (0 Bft)
20.03.2016 09:00 1,8 C 94 % 1017,6 hPa 0,0 l/m N 0,00 h 62 W/m 0,4 km/h (0 Bft)
20.03.2016 10:00 2,3 C 92 % 1017,6 hPa 0,0 l/m O 0,00 h 99 W/m 2,4 km/h (1 Bft)
20.03.2016 11:00 3,3 C 89 % 1017,2 hPa 0,0 l/m O 0,00 h 150 W/m 2,0 km/h (1 Bft)
20.03.2016 12:00 4,7 C 84 % 1016,6 hPa 0,0 l/m O 0,42 h 410 W/m 4,0 km/h (1 Bft)
20.03.2016 13:00 7,1 C 77 % 1015,5 hPa 0,0 l/m NO 1,00 h 644 W/m 6,7 km/h (2 Bft)
20.03.2016 14:00 9,2 C 68 % 1014,9 hPa 0,0 l/m N-NO 1,00 h 586 W/m 9,1 km/h (2 Bft)
20.03.2016 15:00 10,5 C 63 % 1014,3 hPa 0,0 l/m N-NW 1,00 h 465 W/m 5,7 km/h (1 Bft)
20.03.2016 16:00 10,8 C 62 % 1013,8 hPa 0,0 l/m W-NW 1,00 h 307 W/m 5,5 km/h (1 Bft)
20.03.2016 17:00 10,4 C 63 % 1013,6 hPa 0,0 l/m W-NW 0,67 h 113 W/m 2,7 km/h (1 Bft)
20.03.2016 18:00 8,8 C 68 % 1014,1 hPa 0,0 l/m NW 0,00 h 14 W/m 5,1 km/h (1 Bft)
20.03.2016 19:00 6,9 C 68 % 1015,1 hPa 0,0 l/m N 0,00 h 0 W/m 3,3 km/h (1 Bft)
20.03.2016 20:00 5,2 C 73 % 1015,8 hPa 0,0 l/m N 0,00 h 0 W/m 9,3 km/h (2 Bft)
20.03.2016 21:00 3,2 C 81 % 1016,3 hPa 0,0 l/m N 0,00 h 0 W/m 7,1 km/h (2 Bft)
20.03.2016 22:00 1,9 C 87 % 1016,4 hPa 0,0 l/m N 0,00 h 0 W/m 1,3 km/h (1 Bft)
20.03.2016 23:00 2,2 C 88 % 1016,6 hPa 0,0 l/m N 0,00 h 0 W/m 4,8 km/h (1 Bft)
Min-Datum _ 15.03.16 18.03.16 20.03.16 - - - - 14.03.16
_ Min-Zeit 06:45 15:10 16:55 - - - - 21:30
Minimum _ -2,4 C 38 % 1013,5 hPa - - - - 0,0 km/h (0 Bft)
Max-Datum _ 19.03.16 15.03.16 14.03.16 15.03.16 - 14.03.16 14.03.16 16.03.16
_ Max-Zeit 15:05 19:10 10:05 16:15 - 11:25 11:45 07:45
Maximum _ 14,6 C 96 % 1026,5 hPa 4,0 l/m - 0,08 h 810 W/m 45,1 km/h
O-SO (6 Bft)
Durchschnitt _ 3,3 C 81 % 1020,5 hPa #5,4 l/m O-NO #39:20 h 249 W/m 10,0 km/h (2 Bft)